This is the latest recevied weather packets stored in our database for station/object OK2ILA-13. If no packets are shown the sender has not sent any weather packets the latest 10 day(s).
| Time | Temp. | Humidity | Pressure | Rain* | Wind** | Luminosity | Snow |
|---|---|---|---|---|---|---|---|
| 1777580685 | 5.56° C | 48% | 1027.6 hPa | - | - | - | - |
| 1777580085 | 5.56° C | 48% | 1027.6 hPa | - | - | - | - |
| 1777579485 | 6.11° C | 46% | 1027.6 hPa | - | - | - | - |
| 1777578886 | 6.11° C | 46% | 1027.5 hPa | - | - | - | - |
| 1777578287 | 5.56° C | 46% | 1027.5 hPa | - | - | - | - |
| 1777577687 | 5.56° C | 46% | 1027.5 hPa | - | - | - | - |
| 1777577087 | 6.11° C | 46% | 1027.3 hPa | - | - | - | - |
| 1777576487 | 6.11° C | 46% | 1027.4 hPa | - | - | - | - |
| 1777575887 | 6.11° C | 46% | 1027.3 hPa | - | - | - | - |
| 1777575287 | 6.67° C | 45% | 1027.4 hPa | - | - | - | - |
| 1777574688 | 6.67° C | 44% | 1027.3 hPa | - | - | - | - |
| 1777574088 | 6.67° C | 43% | 1027.1 hPa | - | - | - | - |
| 1777573488 | 7.22° C | 42% | 1027.1 hPa | - | - | - | - |
| 1777572889 | 7.22° C | 41% | 1027 hPa | - | - | - | - |
| 1777572289 | 7.78° C | 40% | 1026.9 hPa | - | - | - | - |
| 1777571690 | 7.78° C | 39% | 1027 hPa | - | - | - | - |
| 1777571090 | 8.33° C | 38% | 1026.9 hPa | - | - | - | - |
| 1777570491 | 8.33° C | 37% | 1026.9 hPa | - | - | - | - |
| 1777569891 | 8.89° C | 35% | 1026.9 hPa | - | - | - | - |
| 1777569292 | 8.89° C | 35% | 1026.7 hPa | - | - | - | - |
| 1777568692 | 9.44° C | 34% | 1026.9 hPa | - | - | - | - |
| 1777568092 | 9.44° C | 34% | 1027 hPa | - | - | - | - |
| 1777567493 | 9.44° C | 33% | 1027 hPa | - | - | - | - |
| 1777566893 | 9.44° C | 33% | 1026.9 hPa | - | - | - | - |
| 1777566293 | 9.44° C | 33% | 1027 hPa | - | - | - | - |
* Rain since midnight (hover to see other rain measurements)
** Current wind speed in m/s (hover to see current wind gust speed)